Hourly Data Report for October 15, 2017

TORONTO CITY
ONTARIO

43°40'00.000" N
79°24'00.000" W
112.50 m
6158355
71508
XTO

Download Data

Hourly Data (October 2017)
Hourly Data Report for October 15, 2017
TIME
LST
Temp Definition
°C
Dew Point Definition
°C
Rel Hum Definition
%
Precip. Amount Definition
mm

Wind Dir Definition
10's deg

Wind Spd Definition
km/h
Visibility Definition
km
Stn Press Definition
kPa
Hmdx Definition


Wind Chill Definition


Weather Definition


00:00 15.5 14.0 91 0.5 LegendMM LegendMM   100.15     LegendNANA
01:00 15.6 13.9 90 0.7 LegendMM LegendMM   100.02     LegendNANA
02:00 15.7 14.1 91 0.0 LegendMM LegendMM   99.88     LegendNANA
03:00 15.7 14.3 91 0.2 LegendMM LegendMM   99.75     LegendNANA
04:00 15.7 14.3 92 0.6 LegendMM LegendMM   99.55     LegendNANA
05:00 16.5 14.8 89 0.0 LegendMM LegendMM   99.43     LegendNANA
06:00 17.9 14.9 82 0.0 LegendMM LegendMM   99.34     LegendNANA
07:00 18.0 15.2 84 0.0 LegendMM LegendMM   99.25     LegendNANA
08:00 19.0 16.0 83 0.0 LegendMM LegendMM   99.19     LegendNANA
09:00 20.3 16.8 80 0.0 LegendMM LegendMM   99.10 25   LegendNANA
10:00 20.6 16.8 79 0.0 LegendMM LegendMM   99.04 26   LegendNANA
11:00 21.2 17.7 80 0.0 LegendMM LegendMM   98.96 27   LegendNANA
12:00 21.6 17.4 77 0.0 LegendMM LegendMM   98.84 27   LegendNANA
13:00 21.4 17.0 76 0.0 LegendMM LegendMM   98.73 27   LegendNANA
14:00 22.8 17.1 70 0.0 LegendMM LegendMM   98.62 28   LegendNANA
15:00 18.4 15.0 81 3.7 LegendMM LegendMM   98.79     LegendNANA
16:00 19.6 13.3 67 0.0 LegendMM LegendMM   98.88     LegendNANA
17:00 17.0 9.7 62 0.0 LegendMM LegendMM   99.14     LegendNANA
18:00 14.3 7.2 62 0.2 LegendMM LegendMM   99.33     LegendNANA
19:00 12.8 6.2 64 0.0 LegendMM LegendMM   99.57     LegendNANA
20:00 11.4 4.9 64 0.0 LegendMM LegendMM   99.78     LegendNANA
21:00 9.9 4.5 69 0.0 LegendMM LegendMM   99.93     LegendNANA
22:00 9.5 3.3 65 0.0 LegendMM LegendMM   100.10     LegendNANA
23:00 8.8 3.0 67 0.0 LegendMM LegendMM   100.21     LegendNANA

Notes on Data Quality.

Legend

  • E = Estimated
  • M = Missing
  • NA = Not Available*
  • [empty] = Indicates an unobserved value
Date modified: